Time,TemperatureF,DewpointF,PressureIn,WindDirection,WindDirectionDegrees,WindSpeedMPH,WindSpeedGustMPH,Humidity,HourlyPrecipIn,Conditions,Clouds,dailyrainin,SolarRadiationWatts/m^2,SoftwareType,DateUTC
2013-03-10 00:22:00,33.0,32.0,-100.00,South,177,4.0,10.0,95,0.00,,,0.00,1.000000,,2013-03-10 05:22:00,
2013-03-10 00:31:00,33.0,32.0,-100.00,South,177,4.0,10.0,95,0.00,,,0.00,1.000000,,2013-03-10 05:31:00,
2013-03-10 00:42:00,33.0,32.0,-100.00,South,177,4.0,10.0,95,0.00,,,0.00,1.000000,,2013-03-10 05:42:00,
2013-03-10 00:52:00,33.0,32.0,-100.00,South,177,4.0,10.0,95,0.00,,,0.00,1.000000,,2013-03-10 05:52:00,
2013-03-10 01:22:00,33.0,32.0,-100.00,South,172,3.0,7.0,96,0.00,,,0.00,1.000000,,2013-03-10 06:22:00,
2013-03-10 01:32:00,33.0,32.0,-100.00,South,172,3.0,7.0,96,0.00,,,0.00,1.000000,,2013-03-10 06:32:00,
2013-03-10 01:42:00,33.0,32.0,-100.00,South,172,3.0,7.0,96,0.00,,,0.00,1.000000,,2013-03-10 06:42:00,
2013-03-10 01:51:00,33.0,32.0,-100.00,South,172,3.0,7.0,96,0.00,,,0.00,1.000000,,2013-03-10 06:51:00,
2013-03-10 03:21:00,33.0,32.0,-100.00,South,176,3.0,6.0,97,0.00,,,0.00,1.000000,,2013-03-10 07:21:00,
2013-03-10 03:32:00,33.0,32.0,-100.00,South,176,3.0,6.0,97,0.00,,,0.00,1.000000,,2013-03-10 07:32:00,
2013-03-10 03:42:00,33.0,32.0,-100.00,South,176,3.0,6.0,97,0.00,,,0.00,1.000000,,2013-03-10 07:42:00,
2013-03-10 03:52:00,33.0,32.0,-100.00,South,176,3.0,6.0,97,0.00,,,0.00,1.000000,,2013-03-10 07:52:00,
2013-03-10 04:21:00,33.0,32.0,-100.00,South,179,2.0,5.0,97,0.00,,,0.00,1.000000,,2013-03-10 08:21:00,
2013-03-10 04:31:00,33.0,32.0,-100.00,South,179,2.0,5.0,97,0.00,,,0.00,1.000000,,2013-03-10 08:31:00,
2013-03-10 04:42:00,33.0,32.0,-100.00,South,179,2.0,5.0,97,0.00,,,0.00,1.000000,,2013-03-10 08:42:00,
2013-03-10 04:51:00,33.0,32.0,-100.00,South,179,2.0,5.0,97,0.00,,,0.00,1.000000,,2013-03-10 08:51:00,
2013-03-10 05:21:00,33.0,32.0,-100.00,West,271,1.0,4.0,97,0.00,,,0.00,1.000000,,2013-03-10 09:21:00,
2013-03-10 05:31:00,33.0,32.0,-100.00,West,271,1.0,4.0,97,0.00,,,0.00,1.000000,,2013-03-10 09:31:00,
2013-03-10 05:41:00,33.0,32.0,-100.00,West,271,1.0,4.0,97,0.00,,,0.00,1.000000,,2013-03-10 09:41:00,
2013-03-10 05:51:00,33.0,32.0,-100.00,West,271,1.0,4.0,97,0.00,,,0.00,1.000000,,2013-03-10 09:51:00,
2013-03-10 06:21:00,33.0,32.0,-100.00,West,276,1.0,3.0,97,0.00,,,0.00,1.000000,,2013-03-10 10:21:00,
2013-03-10 06:32:00,33.0,32.0,-100.00,West,276,1.0,3.0,97,0.00,,,0.00,1.000000,,2013-03-10 10:32:00,
2013-03-10 06:42:00,33.0,32.0,-100.00,West,276,1.0,3.0,97,0.00,,,0.00,1.000000,,2013-03-10 10:42:00,
2013-03-10 06:52:00,33.0,32.0,-100.00,West,276,1.0,3.0,97,0.00,,,0.00,1.000000,,2013-03-10 10:52:00,
2013-03-10 10:21:00,32.0,31.0,-100.00,NW,323,3.0,10.0,97,-99.99,,,0.00,22.000000,,2013-03-10 14:21:00,
2013-03-10 10:32:00,32.0,31.0,-100.00,NW,323,3.0,10.0,97,-99.99,,,0.00,22.000000,,2013-03-10 14:32:00,
2013-03-10 10:41:00,32.0,31.0,-100.00,NW,323,3.0,10.0,97,-99.99,,,0.00,22.000000,,2013-03-10 14:41:00,
2013-03-10 10:51:00,32.0,31.0,-100.00,NW,323,3.0,10.0,97,-99.99,,,0.00,22.000000,,2013-03-10 14:51:00,
2013-03-10 11:21:00,32.0,31.0,-100.00,NNW,340,5.0,10.0,97,0.00,,,0.00,39.000000,,2013-03-10 15:21:00,
2013-03-10 11:32:00,32.0,31.0,-100.00,NNW,340,5.0,10.0,97,0.00,,,0.00,39.000000,,2013-03-10 15:32:00,
2013-03-10 11:42:00,32.0,31.0,-100.00,NNW,340,5.0,10.0,97,0.00,,,0.00,39.000000,,2013-03-10 15:42:00,
2013-03-10 11:51:00,32.0,31.0,-100.00,NNW,340,5.0,10.0,97,0.00,,,0.00,39.000000,,2013-03-10 15:51:00,
2013-03-10 12:21:00,32.0,30.0,-100.00,NNW,347,6.0,11.0,93,0.00,,,0.00,42.000000,,2013-03-10 16:21:00,
2013-03-10 12:32:00,32.0,30.0,-100.00,NNW,347,6.0,11.0,93,0.00,,,0.00,42.000000,,2013-03-10 16:32:00,
2013-03-10 12:41:00,32.0,30.0,-100.00,NNW,347,6.0,11.0,93,0.00,,,0.00,42.000000,,2013-03-10 16:41:00,
2013-03-10 12:51:00,32.0,30.0,-100.00,NNW,347,6.0,11.0,93,0.00,,,0.00,42.000000,,2013-03-10 16:51:00,
2013-03-10 14:22:00,33.0,29.0,-100.00,North,349,5.0,12.0,84,-99.99,,,0.00,102.000000,,2013-03-10 18:22:00,
2013-03-10 14:32:00,33.0,29.0,-100.00,North,349,5.0,12.0,84,-99.99,,,0.00,102.000000,,2013-03-10 18:32:00,
2013-03-10 14:42:00,33.0,29.0,-100.00,North,349,5.0,12.0,84,-99.99,,,0.00,102.000000,,2013-03-10 18:42:00,
2013-03-10 14:52:00,33.0,29.0,-100.00,North,349,5.0,12.0,84,-99.99,,,0.00,102.000000,,2013-03-10 18:52:00,
2013-03-10 15:21:00,32.0,28.0,-100.00,North,1,6.0,13.0,84,0.00,,,0.00,91.000000,,2013-03-10 19:21:00,
2013-03-10 15:32:00,32.0,28.0,-100.00,North,1,6.0,13.0,84,0.00,,,0.00,91.000000,,2013-03-10 19:32:00,
2013-03-10 15:42:00,32.0,28.0,-100.00,North,1,6.0,13.0,84,0.00,,,0.00,91.000000,,2013-03-10 19:42:00,
2013-03-10 15:52:00,32.0,28.0,-100.00,North,1,6.0,13.0,84,0.00,,,0.00,91.000000,,2013-03-10 19:52:00,
2013-03-10 16:22:00,32.0,27.0,-100.00,North,355,7.0,13.0,82,0.00,,,0.00,98.000000,,2013-03-10 20:22:00,
2013-03-10 16:32:00,32.0,27.0,-100.00,North,355,7.0,13.0,82,0.00,,,0.00,98.000000,,2013-03-10 20:32:00,
2013-03-10 16:42:00,32.0,27.0,-100.00,North,355,7.0,13.0,82,0.00,,,0.00,98.000000,,2013-03-10 20:42:00,
2013-03-10 16:52:00,32.0,27.0,-100.00,North,355,7.0,13.0,82,0.00,,,0.00,98.000000,,2013-03-10 20:52:00,
2013-03-10 17:23:00,32.0,27.0,-100.00,NNE,23,5.0,11.0,81,0.00,,,0.00,62.000000,,2013-03-10 21:23:00,
2013-03-10 17:32:00,32.0,27.0,-100.00,NNE,23,5.0,11.0,81,0.00,,,0.00,62.000000,,2013-03-10 21:32:00,
2013-03-10 17:42:00,32.0,27.0,-100.00,NNE,23,5.0,11.0,81,0.00,,,0.00,62.000000,,2013-03-10 21:42:00,
2013-03-10 17:52:00,32.0,27.0,-100.00,NNE,23,5.0,11.0,81,0.00,,,0.00,62.000000,,2013-03-10 21:52:00,
2013-03-10 18:22:00,31.0,25.0,-100.00,North,6,6.0,13.0,79,0.00,,,0.00,48.000000,,2013-03-10 22:22:00,
2013-03-10 18:32:00,31.0,25.0,-100.00,North,6,6.0,13.0,79,0.00,,,0.00,48.000000,,2013-03-10 22:32:00,
2013-03-10 18:43:00,31.0,25.0,-100.00,North,6,6.0,13.0,79,0.00,,,0.00,48.000000,,2013-03-10 22:43:00,
2013-03-10 18:52:00,31.0,25.0,-100.00,North,6,6.0,13.0,79,0.00,,,0.00,48.000000,,2013-03-10 22:52:00,
2013-03-10 19:23:00,30.0,25.0,-100.00,NNE,26,7.0,14.0,80,0.00,,,0.00,24.000000,,2013-03-10 23:23:00,
2013-03-10 19:33:00,30.0,25.0,-100.00,NNE,26,7.0,14.0,80,0.00,,,0.00,24.000000,,2013-03-10 23:33:00,
2013-03-10 19:42:00,30.0,25.0,-100.00,NNE,26,7.0,14.0,80,0.00,,,0.00,24.000000,,2013-03-10 23:42:00,
2013-03-10 19:52:00,30.0,25.0,-100.00,NNE,26,7.0,14.0,80,0.00,,,0.00,24.000000,,2013-03-10 23:52:00,
2013-03-10 20:23:00,29.0,23.0,-100.00,NNE,32,7.0,14.0,77,0.00,,,0.00,8.000000,,2013-03-11 00:23:00,
2013-03-10 20:33:00,29.0,23.0,-100.00,NNE,32,7.0,14.0,77,0.00,,,0.00,8.000000,,2013-03-11 00:33:00,
2013-03-10 20:43:00,29.0,23.0,-100.00,NNE,32,7.0,14.0,77,0.00,,,0.00,8.000000,,2013-03-11 00:43:00,
2013-03-10 20:52:00,29.0,23.0,-100.00,NNE,32,7.0,14.0,77,0.00,,,0.00,8.000000,,2013-03-11 00:52:00,
2013-03-10 21:23:00,29.0,23.0,-100.00,NNE,31,7.0,16.0,77,0.00,,,0.00,1.000000,,2013-03-11 01:23:00,
2013-03-10 21:32:00,29.0,23.0,-100.00,NNE,31,7.0,16.0,77,0.00,,,0.00,1.000000,,2013-03-11 01:32:00,
2013-03-10 21:42:00,29.0,23.0,-100.00,NNE,31,7.0,16.0,77,0.00,,,0.00,1.000000,,2013-03-11 01:42:00,
2013-03-10 21:52:00,29.0,23.0,-100.00,NNE,31,7.0,16.0,77,0.00,,,0.00,1.000000,,2013-03-11 01:52:00,
2013-03-10 22:22:00,28.0,22.0,-100.00,NNE,31,4.0,20.0,78,0.00,,,0.00,1.000000,,2013-03-11 02:22:00,
2013-03-10 22:32:00,28.0,22.0,-100.00,NNE,31,4.0,20.0,78,0.00,,,0.00,1.000000,,2013-03-11 02:32:00,
2013-03-10 22:42:00,28.0,22.0,-100.00,NNE,31,4.0,20.0,78,0.00,,,0.00,1.000000,,2013-03-11 02:42:00,
2013-03-10 22:52:00,28.0,22.0,-100.00,NNE,31,4.0,20.0,78,0.00,,,0.00,1.000000,,2013-03-11 02:52:00,
2013-03-10 23:22:00,28.0,23.0,-100.00,NNE,33,6.0,12.0,80,0.00,,,0.00,1.000000,,2013-03-11 03:22:00,
2013-03-10 23:32:00,28.0,23.0,-100.00,NNE,33,6.0,12.0,80,0.00,,,0.00,1.000000,,2013-03-11 03:32:00,
2013-03-10 23:42:00,28.0,23.0,-100.00,NNE,33,6.0,12.0,80,0.00,,,0.00,1.000000,,2013-03-11 03:42:00,
2013-03-10 23:52:00,28.0,23.0,-100.00,NNE,33,6.0,12.0,80,0.00,,,0.00,1.000000,,2013-03-11 03:52:00,